Regional Weather Roundup
Issued by NWS Spokane, WA

Home | Current Version | Previous Version | Text Only | Print | Product List | Glossary On
Versions: 1 2 3 4 5 6 7 8 9 10 11 12 13 14 15 16 17 18 19 20 21 22 23 24 25 26 27 28 29 30 31 32 33 34 35 36 37 38 39 40 41 42 43 44 45 46 47 48 49 50
000
NZUS01 KOTX 270000
RWROTX
EASTERN WASHINGTON/NORTHERN IDAHO ROUNDUP
NATIONAL WEATHER SERVICE, SPOKANE WA
400 PM PST THU FEB 26 2015

Note: "fair" indicated few or no clouds below 12,000 feet with no
significant weather and/or obstructions to visibility.

...NORTHEAST WASHINGTON AND NORTHERN IDAHO PANHANDLE...

CITY           SKY/WX    TMP DP  RH WIND       PRES   REMARKS
SPOKANE INTL   CLOUDY    42  30  62 NE7       29.99F
SPOKANE DOWNTO CLOUDY    46  29  51 N3        30.01F
COEUR D ALENE  PTSUNNY   43  27  52 N9        29.99F
DEER PARK      CLOUDY    40  32  73 N6        30.02F

...SOUTHEAST WASHINGTON AND SOUTHERN IDAHO PANHANDLE...

CITY           SKY/WX    TMP DP  RH WIND       PRES   REMARKS
WALLA WALLA    LGT RAIN  52  39  61 S6        30.00F
PULLMAN/MOSCOW CLOUDY    42  33  70 SW8       30.01F
LOWELL           N/A     48  29  47 S6        30.01F

...COLUMBIA BASIN...

CITY           SKY/WX    TMP DP  RH WIND       PRES   REMARKS
EPHRATA        SUNNY     52  32  46 E3        29.99F
MOSES LAKE     SUNNY     51  32  48 CALM      30.01F
TRI CITIES     PTSUNNY   56  36  47 CALM      30.00F
HERMISTON      CLOUDY    57  39  51 NE10      29.98F
PENDLETON      PTSUNNY   51  39  63 E7        29.98F

...EAST SLOPES CASCADES...

CITY           SKY/WX    TMP DP  RH WIND       PRES   REMARKS
THE DALLES     MOSUNNY   58  43  57 NW17      29.98F
YAKIMA         PTSUNNY   58  34  40 CALM      29.97F
ELLENSBURG     LGT RAIN  49  37  63 E13       29.97S
WENATCHEE      MOSUNNY   53  32  44 SE8       29.97F
OMAK           CLOUDY    53  27  36 SW6       29.98F

...SOUTHERN BRITISH COLUMBIA...

CITY           SKY/WX    TMP DP  RH WIND       PRES   REMARKS

...WESTERN MONTANA...

CITY           SKY/WX    TMP DP  RH WIND       PRES   REMARKS
MISSOULA       SUNNY     37  17  44 E13       30.03F

...NEIGHBORING CITIES...

CITY           SKY/WX    TMP DP  RH WIND       PRES   REMARKS
SEATTLE        CLOUDY    52  44  74 CALM      30.02F



USA.gov is the U.S. government's official web portal to all federal, state and local government web resources and services.